Showing default

BSAT-3A, 32019

Orbit data source: Space-Track

BSAT-3A, 32019 is a payload satellite owned by BSAT (JP) in GEO that was launched on Tue, 14 Aug 2007 UTC via an ARIANE 5ECA launch vehicle from the French Guiana (FRGUI). Payloads include a variety of satellites, spacecraft, and rockets equipped with specific instruments for various scientific and technological missions. These include communications satellites like Starlink; space stations such as the ISS; scientific satellites like the Hubble; Earth observation satellites from companies like Planet Labs, Umbra, and HawkEye 360; GPS; miniature CubeSats for education and research; and military/defense satellites.

Not visible in the next 10 days
BSAT-3A details
Identifier
32019, 2007-036B
Orbit
GEO
Last TLE update12 hours ago
Origin
Flag of JPBSAT (JP / JPN)
ManufacturerLMCSS
MissionOperational Commercial Communications
Bus & MotorA2100A, LEROS?
Mass1,967 kg wet, 930 kg dry
Launch date (UTC)
2007-08-14 (17 years ago)
Launch vehicle
ARIANE 5ECA
Launch site
French Guiana (FRGUI)
Object type
Payload
Rocket body
Debris
Shape & HBRBox + 2 Pan, 14.7 m
Radar Cross Section15.563 m², Large (>1 m²)

Expand to show TLE details & history

TLE from 12 hours ago
0 BSAT-3A
1 32019U 07036B   25035.77693682 -.00000347  00000-0  00000+0 0  9998
2 32019   0.0656 246.8883 0003421  19.1377 258.6640  1.00270678 64070
Epoch: 2025-02-04T18:38Z
Definitive object data (Epoch: 2025-02-04T18:38:47.341Z)
Latitude-0.04665°
Longitude109.80193°
Altitude35,789.286 km
Speed3.074 km/s
True Right ascension10h 58m 42s
True Declination0° 02' 48"
Sunlit
Object was in daylight at TLE epoch
Visualization TLE readout
Latitude0.04387°
Longitude-64.92243°
Altitude35,784.881 km
Speed3.075 km/s
Apparent Right ascension23h 05m 52s
Apparent Declination-4° 59' 21"
Sunlit
Object is in daylight
Visualization observer readout
Local Sidereal Time08:59:49
Azimuth312.565° NW
Elevation-45.007°
Doppler factor1
Orbital elements
Apogee altitude35,802.401 km
Perigee altitude35,773.551 km
Semi-major axis42,166.113 km
Eccentricity0.0003421
Inclination0.0656°
RAAN246.8883°
Arg. of periapsis19.1377°
True anomaly258.62557°
Mean anomaly258.664°
Eccentric anomaly258.64478°
Mean motion0.25067 °/min
BSTARUnknown
Orbital period1436.17 mins
Loading historical data...
32019 neighbors
Authenticating...
Loading maneuver chart data...
Loading historical data...
Loading historical data...
Loading historical data...
Loading historical data...
Loading historical data...
Loading historical data...
Loading historical data...
Other satellites on launch #36 in the year 2007 (2007-08-14 UTC)

BSAT-3A Visibility forecast

Observer location: undefined°, undefined

BSAT-3A is not visible in the next 10 days
Span
Click to sort rows by Start time (UTC) header in descending order
Start Az.
Max El. time (UTC)
Max El. Az.
Max El.
End time (UTC)
End Az.
|